Location: ??????????
(42.1626°N, 44.1160°E)
Time: 13:53:06
(UTC+00:00)

Cosmos 2333 - Pass Details

Date: 03 March 2021
Orbit: 829 x 866 km, 70.9° (Epoch: 20 April)

Event Time Altitude Azimuth Distance (km) Brightness Sun altitude
Rises 16:47:19 0° 203° (SSW) 3,368 7.5 -21.4°
Reaches altitude 10° 16:49:44 10° 204° (SSW) 2,442 6.7 -21.8°
Maximum altitude 16:55:21 87° 293° (WNW) 850 4.1 -22.8°
Drops below altitude 10° 17:01:04 10° 24° (NNE) 2,483 6.5 -23.8°
Sets 17:03:33 0° 25° (NNE) 3,429 7.3 -24.3°
